Weather History for Iron Mountain, MI

Change the Weather History Date:

Saturday, November 16, 2013

  Actual Average Record
Temperature  
Mean Temperature 42 °F -  
Max Temperature 52 °F 41 °F 67 °F (1953)
Min Temperature 32 °F 23 °F 9 °F (2002)
Degree Days  
Heating Degree Days 24    
Moisture  
Dew Point 40 °F    
Average Humidity 92    
Maximum Humidity 100    
Minimum Humidity 81    
Precipitation  
Precipitation 0.35 in - - ()
Sea Level Pressure  
Sea Level Pressure 29.60 in    
Wind  
Wind Speed 8 mph (SSE)    
Max Wind Speed 15 mph    
Max Gust Speed 23 mph    
Visibility 4 miles    
Events Rain    
Averages and records for this station are not official NWS values.
T = Trace of Precipitation, MM = Missing Value Source: NWS Daily Summary

Daily Weather History Graph

Daily Weather History Graph

Search for Another Location

Airport:

Trip Planner

Search our weather history database for the weather conditions in past years. The results will help you decide how hot, cold, wet, or windy it might be!

Date:

Astronomy

Nov. 16, 2013 Rise Set
Actual Time 6:54 AM CST 4:19 PM CST
Civil Twilight 6:21 AM CST 4:52 PM CST
Nautical Twilight 5:45 AM CST 5:28 PM CST
Astronomical Twilight 5:10 AM CST 6:03 PM CST
Moon 3:57 PM CST (11/16) 5:47 AM CST (11/16)
Length of Visible Light 10h 30m
Length of Day
9h 25m
Waxing Gibbous, 99% of the Moon is Illuminated
Nov 16
Waxing Gibbous
Nov 17
Full
Nov 25
Last Quarter
Dec 2
New
Dec 9
First Quarter

Hourly Weather History & Observations

Time (CST) Temp. Windchill Dew Point Humidity Pressure Visibility Wind Dir Wind Speed Gust Speed Precip Events Conditions
12:54 AM 35.1 °F 29.3 °F 32.0 °F 89% 29.82 in 5.0 mi SE 6.9 mph - N/A   Clear
1:54 AM 34.0 °F 28.8 °F 30.9 °F 89% 29.83 in 4.0 mi ESE 5.8 mph - N/A   Clear
2:54 AM 33.1 °F 27.7 °F 30.9 °F 92% 29.81 in 3.0 mi SE 5.8 mph - N/A   Clear
3:11 AM 32.0 °F 26.4 °F 30.2 °F 93% 29.80 in 2.5 mi SE 5.8 mph - N/A   Clear
3:25 AM 33.8 °F 28.6 °F 30.2 °F 87% 29.79 in 3.0 mi SE 5.8 mph - N/A   Scattered Clouds
3:54 AM 34.0 °F 28.0 °F 30.9 °F 89% 29.81 in 5.0 mi SSE 6.9 mph - N/A   Mostly Cloudy
4:54 AM 35.1 °F 29.3 °F 30.9 °F 85% 29.80 in 7.0 mi SSE 6.9 mph - N/A   Overcast
5:54 AM 35.1 °F 30.1 °F 30.9 °F 85% 29.80 in 6.0 mi SE 5.8 mph - N/A   Mostly Cloudy
6:54 AM 34.0 °F 28.0 °F 30.9 °F 89% 29.78 in 5.0 mi SE 6.9 mph - N/A   Mostly Cloudy
7:54 AM 37.0 °F 31.6 °F 33.1 °F 86% 29.78 in 5.0 mi SSE 6.9 mph - N/A   Overcast
8:54 AM 39.0 °F 32.8 °F 34.0 °F 82% 29.76 in 6.0 mi SSE 9.2 mph - N/A   Haze
9:18 AM 39.2 °F 33.6 °F 33.8 °F 81% 29.72 in 6.0 mi SSE 8.1 mph - N/A   Haze
9:44 AM 39.2 °F 32.0 °F 35.6 °F 87% 29.71 in 5.0 mi SSE 11.5 mph - N/A   Overcast
9:54 AM 39.9 °F 32.9 °F 35.1 °F 83% 29.75 in 5.0 mi SSE 11.5 mph - N/A   Haze
10:54 AM 39.9 °F 32.9 °F 36.0 °F 86% 29.73 in 3.0 mi SSE 11.5 mph - N/A   Overcast
11:21 AM 39.2 °F 33.0 °F 37.4 °F 93% 29.68 in 2.5 mi SSE 9.2 mph 18.4 mph N/A   Overcast
11:54 AM 39.9 °F 33.9 °F 37.9 °F 93% 29.70 in 1.2 mi SSE 9.2 mph - N/A   Overcast
12:42 PM 41.0 °F 35.8 °F 39.2 °F 93% 29.63 in 0.8 mi SSE 8.1 mph - N/A   Overcast
12:54 PM 41.0 °F 35.8 °F 39.9 °F 96% 29.65 in 0.8 mi SE 8.1 mph - N/A   Overcast
1:10 PM 41.0 °F 35.2 °F 39.2 °F 93% 29.60 in 1.0 mi SE 9.2 mph - N/A   Overcast
1:54 PM 42.1 °F 36.6 °F 41.0 °F 96% 29.62 in 1.0 mi SSE 9.2 mph - 0.00 in Rain Light Rain
2:09 PM 42.8 °F 37.5 °F 41.0 °F 93% 29.57 in 0.8 mi SSE 9.2 mph - 0.00 in   Overcast
2:50 PM 42.8 °F 39.3 °F 42.8 °F 100% 29.55 in 1.0 mi SSE 5.8 mph - 0.00 in   Overcast
2:54 PM 43.0 °F 37.7 °F 42.1 °F 97% 29.59 in 1.0 mi SE 9.2 mph - 0.00 in   Overcast
3:04 PM 42.8 °F 39.3 °F 42.8 °F 100% 29.55 in 0.8 mi SE 5.8 mph - 0.00 in Rain Light Rain
3:11 PM 42.8 °F 39.3 °F 42.8 °F 100% 29.54 in 1.0 mi SE 5.8 mph - 0.00 in Rain Light Rain
3:54 PM 44.1 °F 40.1 °F 43.0 °F 96% 29.55 in 2.0 mi SE 6.9 mph - 0.00 in Rain Light Rain
4:08 PM 44.6 °F 40.2 °F 42.8 °F 93% 29.50 in 1.8 mi SE 8.1 mph - 0.01 in Rain Rain
4:16 PM 44.6 °F 40.2 °F 42.8 °F 93% 29.49 in 3.0 mi SE 8.1 mph - 0.02 in Rain Light Rain
4:54 PM 45.0 °F 40.6 °F 43.0 °F 93% 29.50 in 3.0 mi SE 8.1 mph - 0.02 in Rain Light Rain
5:04 PM 44.6 °F 39.2 °F 42.8 °F 93% 29.46 in 2.5 mi SE 10.4 mph - 0.01 in Rain Rain
5:14 PM 44.6 °F 38.4 °F 44.6 °F 100% 29.46 in 4.0 mi SE 12.7 mph - 0.01 in Rain Light Rain
5:54 PM 46.9 °F - 45.0 °F 93% 29.46 in 7.0 mi SSE 10.4 mph 21.9 mph 0.01 in Rain Light Rain
6:02 PM 46.4 °F 40.4 °F 44.6 °F 93% 29.42 in 7.0 mi SSE 13.8 mph 19.6 mph 0.00 in Rain Light Rain
6:54 PM 48.0 °F - 46.0 °F 93% 29.43 in 4.0 mi SSE 15.0 mph 21.9 mph 0.11 in Rain Rain
7:54 PM 48.9 °F - 46.9 °F 93% 29.40 in 9.0 mi SSE 11.5 mph - 0.14 in Rain Light Rain
8:54 PM 48.9 °F - 46.9 °F 93% 29.40 in 10.0 mi South 9.2 mph - 0.01 in Rain Light Rain
9:54 PM 50.0 °F - 48.0 °F 93% 29.38 in 10.0 mi South 9.2 mph - 0.05 in Rain Light Rain
10:25 PM 50.0 °F - 48.2 °F 94% 29.36 in 10.0 mi South 11.5 mph - 0.01 in   Overcast
10:35 PM 50.0 °F - 48.2 °F 94% 29.36 in 10.0 mi South 11.5 mph 19.6 mph 0.01 in   Overcast
10:54 PM 51.1 °F - 48.9 °F 92% 29.39 in 10.0 mi South 12.7 mph 23.0 mph 0.01 in   Overcast
11:54 PM 52.0 °F - 50.0 °F 93% 29.40 in 10.0 mi South 11.5 mph - N/A   Overcast